Time,TemperatureF,DewpointF,PressureIn,WindDirection,WindDirectionDegrees,WindSpeedMPH,WindSpeedGustMPH,Humidity,HourlyPrecipIn,Conditions,Clouds,dailyrainin,SoftwareType,DateUTC
2013-02-17 00:01:00,33.1,19.1,29.83,North,360,13.0,16.0,56,0.00,,,0.00,Wunderground v.1.15,2013-02-17 05:01:00,
2013-02-17 00:03:00,33.0,19.0,29.83,North,360,13.0,16.0,56,0.00,,,0.00,Wunderground v.1.15,2013-02-17 05:03:00,
2013-02-17 00:05:00,33.0,19.0,29.82,North,360,12.0,16.0,56,0.00,,,0.00,Wunderground v.1.15,2013-02-17 05:05:00,
2013-02-17 00:07:00,33.1,19.1,29.83,North,360,11.0,16.0,56,0.00,,,0.00,Wunderground v.1.15,2013-02-17 05:07:00,
2013-02-17 00:09:00,33.1,19.1,29.83,North,360,11.0,15.0,56,0.00,,,0.00,Wunderground v.1.15,2013-02-17 05:09:00,
2013-02-17 00:13:00,33.0,19.0,29.83,North,360,11.0,15.0,56,0.00,,,0.00,Wunderground v.1.15,2013-02-17 05:13:00,
2013-02-17 00:15:00,32.9,18.9,29.82,North,360,11.0,15.0,56,0.00,,,0.00,Wunderground v.1.15,2013-02-17 05:15:00,
2013-02-17 00:21:00,32.7,19.1,29.83,North,360,12.0,25.0,57,0.00,,,0.00,Wunderground v.1.15,2013-02-17 05:21:00,
2013-02-17 00:23:00,32.7,19.1,29.83,North,360,11.0,25.0,57,0.00,,,0.00,Wunderground v.1.15,2013-02-17 05:23:00,
2013-02-17 00:27:00,32.7,19.1,29.83,North,360,10.0,25.0,57,0.00,,,0.00,Wunderground v.1.15,2013-02-17 05:27:00,
2013-02-17 00:29:00,32.6,19.0,29.83,North,360,11.0,11.0,57,0.00,,,0.00,Wunderground v.1.15,2013-02-17 05:29:00,
2013-02-17 00:35:00,32.6,19.0,29.83,North,360,9.0,11.0,57,0.00,,,0.00,Wunderground v.1.15,2013-02-17 05:35:00,
2013-02-17 00:37:00,32.5,18.9,29.83,North,360,9.0,12.0,57,0.00,,,0.00,Wunderground v.1.15,2013-02-17 05:37:00,
2013-02-17 00:39:00,32.4,18.8,29.83,North,360,9.0,17.0,57,0.00,,,0.00,Wunderground v.1.15,2013-02-17 05:39:00,
2013-02-17 00:43:00,32.1,18.6,29.83,North,360,11.0,17.0,57,0.00,,,0.00,Wunderground v.1.15,2013-02-17 05:43:00,
2013-02-17 00:45:00,32.1,18.6,29.83,North,360,12.0,17.0,57,0.00,,,0.00,Wunderground v.1.15,2013-02-17 05:45:00,
2013-02-17 00:49:00,32.1,19.0,29.83,North,360,12.0,12.0,58,0.00,,,0.00,Wunderground v.1.15,2013-02-17 05:49:00,
2013-02-17 00:51:00,32.0,18.9,29.83,North,360,12.0,12.0,58,0.00,,,0.00,Wunderground v.1.15,2013-02-17 05:51:00,
2013-02-17 00:55:00,31.9,18.8,29.83,North,360,11.0,12.0,58,0.00,,,0.00,Wunderground v.1.15,2013-02-17 05:55:00,
2013-02-17 00:57:00,31.9,18.8,29.83,North,360,10.0,12.0,58,0.00,,,0.00,Wunderground v.1.15,2013-02-17 05:57:00,
2013-02-17 01:03:00,31.9,18.8,29.83,North,360,11.0,14.0,58,0.00,,,0.00,Wunderground v.1.15,2013-02-17 06:03:00,
2013-02-17 01:05:00,31.8,18.7,29.84,North,360,11.0,14.0,58,0.00,,,0.00,Wunderground v.1.15,2013-02-17 06:05:00,
2013-02-17 01:07:00,31.7,18.6,29.83,North,360,11.0,14.0,58,0.00,,,0.00,Wunderground v.1.15,2013-02-17 06:07:00,
2013-02-17 01:09:00,31.7,18.6,29.84,North,360,11.0,11.0,58,0.00,,,0.00,Wunderground v.1.15,2013-02-17 06:09:00,
2013-02-17 01:15:00,31.6,18.9,29.84,North,360,11.0,11.0,59,0.00,,,0.00,Wunderground v.1.15,2013-02-17 06:15:00,
2013-02-17 01:17:00,31.6,18.5,29.84,North,360,10.0,15.0,58,0.00,,,0.00,Wunderground v.1.15,2013-02-17 06:17:00,
2013-02-17 01:21:00,31.8,18.7,29.84,North,360,11.0,12.0,58,0.00,,,0.00,Wunderground v.1.15,2013-02-17 06:21:00,
2013-02-17 01:25:00,31.8,18.7,29.84,North,360,10.0,14.0,58,0.00,,,0.00,Wunderground v.1.15,2013-02-17 06:25:00,
2013-02-17 01:29:00,31.7,18.6,29.84,North,360,9.0,9.0,58,0.00,,,0.00,Wunderground v.1.15,2013-02-17 06:29:00,
2013-02-17 01:31:00,31.7,18.6,29.84,North,360,9.0,9.0,58,0.00,,,0.00,Wunderground v.1.15,2013-02-17 06:31:00,
2013-02-17 01:33:00,31.7,18.6,29.84,North,360,10.0,10.0,58,0.00,,,0.00,Wunderground v.1.15,2013-02-17 06:33:00,
2013-02-17 01:39:00,31.5,18.4,29.84,North,360,10.0,13.0,58,0.00,,,0.00,Wunderground v.1.15,2013-02-17 06:39:00,
2013-02-17 01:41:00,31.5,18.4,29.84,North,360,10.0,14.0,58,0.00,,,0.00,Wunderground v.1.15,2013-02-17 06:41:00,
2013-02-17 01:43:00,31.4,18.3,29.84,North,360,11.0,14.0,58,0.00,,,0.00,Wunderground v.1.15,2013-02-17 06:43:00,
2013-02-17 01:45:00,31.4,18.3,29.83,North,360,11.0,19.0,58,0.00,,,0.00,Wunderground v.1.15,2013-02-17 06:45:00,
2013-02-17 01:49:00,31.2,18.1,29.84,North,360,13.0,13.0,58,0.00,,,0.00,Wunderground v.1.15,2013-02-17 06:49:00,
2013-02-17 01:51:00,31.3,18.2,29.84,North,360,12.0,13.0,58,0.00,,,0.00,Wunderground v.1.15,2013-02-17 06:51:00,
2013-02-17 01:57:00,31.1,18.0,29.84,North,360,11.0,13.0,58,0.00,,,0.00,Wunderground v.1.15,2013-02-17 06:57:00,
2013-02-17 01:59:00,31.2,18.5,29.83,North,360,10.0,10.0,59,0.00,,,0.00,Wunderground v.1.15,2013-02-17 06:59:00,
2013-02-17 02:01:00,31.2,18.1,29.83,North,360,10.0,10.0,58,0.00,,,0.00,Wunderground v.1.15,2013-02-17 07:01:00,
2013-02-17 02:05:00,31.2,18.1,29.83,North,360,10.0,14.0,58,0.00,,,0.00,Wunderground v.1.15,2013-02-17 07:05:00,
2013-02-17 02:07:00,31.2,17.7,29.83,North,360,10.0,14.0,57,0.00,,,0.00,Wunderground v.1.15,2013-02-17 07:07:00,
2013-02-17 02:09:00,31.3,18.2,29.83,North,360,9.0,12.0,58,0.00,,,0.00,Wunderground v.1.15,2013-02-17 07:09:00,
2013-02-17 02:11:00,31.3,17.8,29.83,North,360,9.0,12.0,57,0.00,,,0.00,Wunderground v.1.15,2013-02-17 07:11:00,
2013-02-17 02:15:00,31.6,18.1,29.83,North,360,9.0,12.0,57,0.00,,,0.00,Wunderground v.1.15,2013-02-17 07:15:00,
2013-02-17 02:19:00,31.6,17.7,29.84,North,360,7.0,7.0,56,0.00,,,0.00,Wunderground v.1.15,2013-02-17 07:19:00,
2013-02-17 02:23:00,31.2,17.3,29.84,North,360,8.0,9.0,56,0.00,,,0.00,Wunderground v.1.15,2013-02-17 07:23:00,
2013-02-17 02:25:00,31.0,17.5,29.84,North,360,9.0,16.0,57,0.00,,,0.00,Wunderground v.1.15,2013-02-17 07:25:00,
2013-02-17 02:31:00,30.9,17.4,29.84,North,360,11.0,13.0,57,0.00,,,0.00,Wunderground v.1.15,2013-02-17 07:31:00,
2013-02-17 02:33:00,30.8,17.3,29.84,North,360,11.0,13.0,57,0.00,,,0.00,Wunderground v.1.15,2013-02-17 07:33:00,
2013-02-17 02:39:00,30.8,17.7,29.84,North,360,12.0,12.0,58,0.00,,,0.00,Wunderground v.1.15,2013-02-17 07:39:00,
2013-02-17 02:41:00,30.9,17.8,29.84,North,360,11.0,12.0,58,0.00,,,0.00,Wunderground v.1.15,2013-02-17 07:41:00,
2013-02-17 02:45:00,30.8,17.3,29.84,North,360,10.0,13.0,57,0.00,,,0.00,Wunderground v.1.15,2013-02-17 07:45:00,
2013-02-17 02:47:00,30.7,17.3,29.84,North,360,10.0,13.0,57,0.00,,,0.00,Wunderground v.1.15,2013-02-17 07:47:00,
2013-02-17 02:49:00,30.7,17.7,29.84,North,360,10.0,10.0,58,0.00,,,0.00,Wunderground v.1.15,2013-02-17 07:49:00,
2013-02-17 02:51:00,30.8,17.3,29.84,North,360,11.0,17.0,57,0.00,,,0.00,Wunderground v.1.15,2013-02-17 07:51:00,
2013-02-17 02:53:00,30.8,17.3,29.84,North,360,12.0,17.0,57,0.00,,,0.00,Wunderground v.1.15,2013-02-17 07:53:00,
2013-02-17 02:55:00,30.8,17.3,29.84,North,360,11.0,17.0,57,0.00,,,0.00,Wunderground v.1.15,2013-02-17 07:55:00,
2013-02-17 02:59:00,30.7,17.7,29.84,North,360,10.0,13.0,58,0.00,,,0.00,Wunderground v.1.15,2013-02-17 07:59:00,
2013-02-17 03:03:00,30.8,17.7,29.84,North,360,8.0,13.0,58,0.00,,,0.00,Wunderground v.1.15,2013-02-17 08:03:00,
2013-02-17 03:05:00,30.7,17.3,29.84,North,360,8.0,13.0,57,0.00,,,0.00,Wunderground v.1.15,2013-02-17 08:05:00,
2013-02-17 03:09:00,30.6,17.2,29.84,North,360,9.0,13.0,57,0.00,,,0.00,Wunderground v.1.15,2013-02-17 08:09:00,
2013-02-17 03:11:00,30.5,17.1,29.84,North,360,9.0,13.0,57,0.00,,,0.00,Wunderground v.1.15,2013-02-17 08:11:00,
2013-02-17 03:15:00,30.5,17.1,29.84,North,360,9.0,13.0,57,0.00,,,0.00,Wunderground v.1.15,2013-02-17 08:15:00,
2013-02-17 03:17:00,30.5,17.1,29.84,North,360,9.0,13.0,57,0.00,,,0.00,Wunderground v.1.15,2013-02-17 08:17:00,
2013-02-17 03:19:00,30.5,17.1,29.84,North,360,9.0,15.0,57,0.00,,,0.00,Wunderground v.1.15,2013-02-17 08:19:00,
2013-02-17 03:23:00,30.5,17.1,29.84,North,360,9.0,15.0,57,0.00,,,0.00,Wunderground v.1.15,2013-02-17 08:23:00,
2013-02-17 03:27:00,30.4,17.0,29.84,North,360,8.0,15.0,57,0.00,,,0.00,Wunderground v.1.15,2013-02-17 08:27:00,
2013-02-17 03:29:00,30.4,17.0,29.84,North,360,9.0,14.0,57,0.00,,,0.00,Wunderground v.1.15,2013-02-17 08:29:00,
2013-02-17 03:31:00,30.4,17.0,29.84,North,360,8.0,14.0,57,0.00,,,0.00,Wunderground v.1.15,2013-02-17 08:31:00,
2013-02-17 03:33:00,30.4,16.6,29.84,North,360,9.0,14.0,56,0.00,,,0.00,Wunderground v.1.15,2013-02-17 08:33:00,
2013-02-17 03:35:00,30.2,16.8,29.84,North,360,10.0,14.0,57,0.00,,,0.00,Wunderground v.1.15,2013-02-17 08:35:00,
2013-02-17 03:37:00,30.2,16.8,29.84,North,360,11.0,14.0,57,0.00,,,0.00,Wunderground v.1.15,2013-02-17 08:37:00,
2013-02-17 03:39:00,30.2,17.2,29.84,North,360,10.0,10.0,58,0.00,,,0.00,Wunderground v.1.15,2013-02-17 08:39:00,
2013-02-17 03:43:00,30.1,16.7,29.84,North,360,9.0,11.0,57,0.00,,,0.00,Wunderground v.1.15,2013-02-17 08:43:00,
2013-02-17 03:45:00,30.1,17.1,29.84,North,360,8.0,11.0,58,0.00,,,0.00,Wunderground v.1.15,2013-02-17 08:45:00,
2013-02-17 03:47:00,30.1,17.1,29.84,North,360,7.0,11.0,58,0.00,,,0.00,Wunderground v.1.15,2013-02-17 08:47:00,
2013-02-17 03:49:00,30.0,17.0,29.84,North,360,9.0,10.0,58,0.00,,,0.00,Wunderground v.1.15,2013-02-17 08:49:00,
2013-02-17 03:53:00,29.9,16.9,29.84,North,360,10.0,13.0,58,0.00,,,0.00,Wunderground v.1.15,2013-02-17 08:53:00,
2013-02-17 03:59:00,29.7,17.1,29.84,North,360,12.0,13.0,59,0.00,,,0.00,Wunderground v.1.15,2013-02-17 08:59:00,
2013-02-17 04:01:00,29.6,17.0,29.84,North,360,12.0,13.0,59,0.00,,,0.00,Wunderground v.1.15,2013-02-17 09:01:00,
2013-02-17 04:05:00,29.6,17.0,29.84,North,360,10.0,19.0,59,0.00,,,0.00,Wunderground v.1.15,2013-02-17 09:05:00,
2013-02-17 04:07:00,29.6,16.6,29.84,North,360,11.0,19.0,58,0.00,,,0.00,Wunderground v.1.15,2013-02-17 09:07:00,
2013-02-17 04:13:00,29.6,16.6,29.84,North,360,10.0,13.0,58,0.00,,,0.00,Wunderground v.1.15,2013-02-17 09:13:00,
2013-02-17 04:17:00,29.5,16.9,29.84,North,360,9.0,13.0,59,0.00,,,0.00,Wunderground v.1.15,2013-02-17 09:17:00,
2013-02-17 04:21:00,29.6,16.6,29.84,North,360,8.0,9.0,58,0.00,,,0.00,Wunderground v.1.15,2013-02-17 09:21:00,
2013-02-17 04:23:00,29.6,16.6,29.84,North,360,8.0,10.0,58,0.00,,,0.00,Wunderground v.1.15,2013-02-17 09:23:00,
2013-02-17 04:27:00,29.7,17.1,29.84,North,360,7.0,10.0,59,0.00,,,0.00,Wunderground v.1.15,2013-02-17 09:27:00,
2013-02-17 04:29:00,29.7,17.1,29.84,North,360,7.0,7.0,59,0.00,,,0.00,Wunderground v.1.15,2013-02-17 09:29:00,
2013-02-17 04:33:00,29.9,16.9,29.85,North,360,6.0,7.0,58,0.00,,,0.00,Wunderground v.1.15,2013-02-17 09:33:00,
2013-02-17 04:35:00,29.9,16.9,29.85,North,360,6.0,12.0,58,0.00,,,0.00,Wunderground v.1.15,2013-02-17 09:35:00,
2013-02-17 04:37:00,29.7,16.7,29.85,North,360,7.0,12.0,58,0.00,,,0.00,Wunderground v.1.15,2013-02-17 09:37:00,
2013-02-17 04:41:00,29.6,17.0,29.85,North,360,7.0,8.0,59,0.00,,,0.00,Wunderground v.1.15,2013-02-17 09:41:00,
2013-02-17 04:47:00,29.3,16.7,29.85,North,360,8.0,11.0,59,0.00,,,0.00,Wunderground v.1.15,2013-02-17 09:47:00,
2013-02-17 04:49:00,29.4,16.8,29.85,North,360,8.0,11.0,59,0.00,,,0.00,Wunderground v.1.15,2013-02-17 09:49:00,
2013-02-17 04:51:00,29.4,16.4,29.85,North,360,9.0,15.0,58,0.00,,,0.00,Wunderground v.1.15,2013-02-17 09:51:00,
2013-02-17 04:57:00,29.4,16.4,29.85,North,360,8.0,15.0,58,0.00,,,0.00,Wunderground v.1.15,2013-02-17 09:57:00,
2013-02-17 04:59:00,29.3,16.3,29.85,North,360,8.0,8.0,58,0.00,,,0.00,Wunderground v.1.15,2013-02-17 09:59:00,
2013-02-17 05:05:00,29.1,16.5,29.85,North,360,7.0,11.0,59,0.00,,,0.00,Wunderground v.1.15,2013-02-17 10:05:00,
2013-02-17 05:07:00,29.1,16.5,29.85,North,360,7.0,11.0,59,0.00,,,0.00,Wunderground v.1.15,2013-02-17 10:07:00,
2013-02-17 05:09:00,29.0,16.1,29.85,North,360,7.0,13.0,58,0.00,,,0.00,Wunderground v.1.15,2013-02-17 10:09:00,
2013-02-17 05:13:00,29.2,16.6,29.85,North,360,7.0,13.0,59,0.00,,,0.00,Wunderground v.1.15,2013-02-17 10:13:00,
2013-02-17 05:19:00,29.3,16.3,29.85,North,360,6.0,9.0,58,0.00,,,0.00,Wunderground v.1.15,2013-02-17 10:19:00,
2013-02-17 05:21:00,29.4,16.0,29.86,North,360,6.0,9.0,57,0.00,,,0.00,Wunderground v.1.15,2013-02-17 10:21:00,
2013-02-17 05:23:00,29.1,15.7,29.86,North,360,7.0,11.0,57,0.00,,,0.00,Wunderground v.1.15,2013-02-17 10:23:00,
2013-02-17 05:25:00,28.9,15.6,29.86,North,360,8.0,11.0,57,0.00,,,0.00,Wunderground v.1.15,2013-02-17 10:25:00,
2013-02-17 05:27:00,28.8,15.9,29.86,North,360,9.0,11.0,58,0.00,,,0.00,Wunderground v.1.15,2013-02-17 10:27:00,
2013-02-17 05:33:00,28.9,16.0,29.86,North,360,9.0,10.0,58,0.00,,,0.00,Wunderground v.1.15,2013-02-17 10:33:00,
2013-02-17 05:35:00,28.8,15.5,29.86,North,360,9.0,11.0,57,0.00,,,0.00,Wunderground v.1.15,2013-02-17 10:35:00,
2013-02-17 05:37:00,28.6,15.7,29.86,North,360,9.0,11.0,58,0.00,,,0.00,Wunderground v.1.15,2013-02-17 10:37:00,
2013-02-17 05:41:00,28.5,15.6,29.86,North,360,9.0,9.0,58,0.00,,,0.00,Wunderground v.1.15,2013-02-17 10:41:00,
2013-02-17 05:45:00,28.6,15.7,29.86,North,360,9.0,9.0,58,0.00,,,0.00,Wunderground v.1.15,2013-02-17 10:45:00,
2013-02-17 05:47:00,28.6,15.7,29.86,North,360,8.0,9.0,58,0.00,,,0.00,Wunderground v.1.15,2013-02-17 10:47:00,
2013-02-17 05:49:00,28.6,15.7,29.86,North,360,9.0,9.0,58,0.00,,,0.00,Wunderground v.1.15,2013-02-17 10:49:00,
2013-02-17 05:53:00,28.4,15.5,29.86,North,360,8.0,9.0,58,0.00,,,0.00,Wunderground v.1.15,2013-02-17 10:53:00,
2013-02-17 05:55:00,28.6,16.1,29.86,North,360,8.0,9.0,59,0.00,,,0.00,Wunderground v.1.15,2013-02-17 10:55:00,
2013-02-17 05:59:00,28.5,15.6,29.86,North,360,8.0,8.0,58,0.00,,,0.00,Wunderground v.1.15,2013-02-17 10:59:00,
2013-02-17 06:01:00,28.3,15.4,29.86,North,360,9.0,12.0,58,0.00,,,0.00,Wunderground v.1.15,2013-02-17 11:01:00,
2013-02-17 06:07:00,28.1,15.6,29.86,North,360,10.0,12.0,59,0.00,,,0.00,Wunderground v.1.15,2013-02-17 11:07:00,
2013-02-17 06:13:00,28.0,15.9,29.86,North,360,8.0,11.0,60,0.00,,,0.00,Wunderground v.1.15,2013-02-17 11:13:00,
2013-02-17 06:15:00,28.0,15.9,29.86,North,360,8.0,11.0,60,0.00,,,0.00,Wunderground v.1.15,2013-02-17 11:15:00,
2013-02-17 06:19:00,28.1,16.0,29.87,North,360,9.0,9.0,60,0.00,,,0.00,Wunderground v.1.15,2013-02-17 11:19:00,
2013-02-17 06:21:00,28.0,15.9,29.86,North,360,9.0,9.0,60,0.00,,,0.00,Wunderground v.1.15,2013-02-17 11:21:00,
2013-02-17 06:25:00,27.9,15.8,29.87,North,360,10.0,13.0,60,0.00,,,0.00,Wunderground v.1.15,2013-02-17 11:25:00,
2013-02-17 06:27:00,27.8,15.7,29.87,North,360,10.0,13.0,60,0.00,,,0.00,Wunderground v.1.15,2013-02-17 11:27:00,
2013-02-17 06:29:00,27.8,15.7,29.87,North,360,10.0,12.0,60,0.00,,,0.00,Wunderground v.1.15,2013-02-17 11:29:00,
2013-02-17 06:33:00,27.7,15.6,29.87,North,360,10.0,12.0,60,0.00,,,0.00,Wunderground v.1.15,2013-02-17 11:33:00,
2013-02-17 06:35:00,27.6,15.5,29.87,North,360,10.0,12.0,60,0.00,,,0.00,Wunderground v.1.15,2013-02-17 11:35:00,
2013-02-17 06:41:00,27.6,15.5,29.87,North,360,9.0,14.0,60,0.00,,,0.00,Wunderground v.1.15,2013-02-17 11:41:00,
2013-02-17 06:45:00,27.6,15.9,29.87,North,360,11.0,14.0,61,0.00,,,0.00,Wunderground v.1.15,2013-02-17 11:45:00,
2013-02-17 06:51:00,27.6,15.5,29.88,North,360,10.0,14.0,60,0.00,,,0.00,Wunderground v.1.15,2013-02-17 11:51:00,
2013-02-17 06:53:00,27.6,15.5,29.88,North,360,10.0,14.0,60,0.00,,,0.00,Wunderground v.1.15,2013-02-17 11:53:00,
2013-02-17 06:55:00,27.7,15.6,29.88,North,360,9.0,14.0,60,0.00,,,0.00,Wunderground v.1.15,2013-02-17 11:55:00,
2013-02-17 06:57:00,27.8,15.7,29.88,North,360,8.0,14.0,60,0.00,,,0.00,Wunderground v.1.15,2013-02-17 11:57:00,
2013-02-17 07:03:00,27.7,15.2,29.88,North,360,9.0,16.0,59,0.00,,,0.00,Wunderground v.1.15,2013-02-17 12:03:00,
2013-02-17 07:05:00,27.6,15.1,29.88,North,360,10.0,16.0,59,0.00,,,0.00,Wunderground v.1.15,2013-02-17 12:05:00,
2013-02-17 07:09:00,27.6,15.1,29.88,North,360,11.0,11.0,59,0.00,,,0.00,Wunderground v.1.15,2013-02-17 12:09:00,
2013-02-17 07:11:00,27.7,15.2,29.88,North,360,10.0,18.0,59,0.00,,,0.00,Wunderground v.1.15,2013-02-17 12:11:00,
2013-02-17 07:13:00,27.6,14.7,29.88,North,360,10.0,18.0,58,0.00,,,0.00,Wunderground v.1.15,2013-02-17 12:13:00,
2013-02-17 07:19:00,27.6,15.1,29.89,North,360,10.0,10.0,59,0.00,,,0.00,Wunderground v.1.15,2013-02-17 12:19:00,
2013-02-17 07:21:00,27.7,14.8,29.89,North,360,10.0,11.0,58,0.00,,,0.00,Wunderground v.1.15,2013-02-17 12:21:00,
2013-02-17 07:23:00,27.7,14.8,29.89,North,360,10.0,11.0,58,0.00,,,0.00,Wunderground v.1.15,2013-02-17 12:23:00,
2013-02-17 07:25:00,27.6,14.7,29.89,North,360,10.0,11.0,58,0.00,,,0.00,Wunderground v.1.15,2013-02-17 12:25:00,
2013-02-17 07:27:00,27.6,14.7,29.89,North,360,10.0,13.0,58,0.00,,,0.00,Wunderground v.1.15,2013-02-17 12:27:00,
2013-02-17 07:29:00,27.6,14.7,29.89,North,360,11.0,11.0,58,0.00,,,0.00,Wunderground v.1.15,2013-02-17 12:29:00,
2013-02-17 07:33:00,27.8,14.9,29.89,North,360,10.0,13.0,58,0.00,,,0.00,Wunderground v.1.15,2013-02-17 12:33:00,
2013-02-17 07:35:00,27.9,15.0,29.89,North,360,9.0,13.0,58,0.00,,,0.00,Wunderground v.1.15,2013-02-17 12:35:00,
2013-02-17 07:37:00,28.0,15.1,29.89,North,360,9.0,14.0,58,0.00,,,0.00,Wunderground v.1.15,2013-02-17 12:37:00,
2013-02-17 07:41:00,28.0,14.7,29.90,North,360,8.0,14.0,57,0.00,,,0.00,Wunderground v.1.15,2013-02-17 12:41:00,
2013-02-17 07:43:00,27.9,14.6,29.90,North,360,9.0,14.0,57,0.00,,,0.00,Wunderground v.1.15,2013-02-17 12:43:00,
2013-02-17 07:45:00,27.9,15.0,29.90,North,360,9.0,14.0,58,0.00,,,0.00,Wunderground v.1.15,2013-02-17 12:45:00,
2013-02-17 07:47:00,27.9,15.0,29.90,North,360,10.0,14.0,58,0.00,,,0.00,Wunderground v.1.15,2013-02-17 12:47:00,
2013-02-17 07:49:00,28.0,15.1,29.90,North,360,9.0,16.0,58,0.00,,,0.00,Wunderground v.1.15,2013-02-17 12:49:00,
2013-02-17 07:55:00,27.8,15.3,29.90,North,360,11.0,16.0,59,0.00,,,0.00,Wunderground v.1.15,2013-02-17 12:55:00,
2013-02-17 07:57:00,27.9,15.4,29.90,North,360,11.0,16.0,59,0.00,,,0.00,Wunderground v.1.15,2013-02-17 12:57:00,
2013-02-17 08:01:00,27.8,14.9,29.90,North,360,12.0,15.0,58,0.00,,,0.00,Wunderground v.1.15,2013-02-17 13:01:00,
2013-02-17 08:03:00,27.7,14.8,29.91,North,360,12.0,15.0,58,0.00,,,0.00,Wunderground v.1.15,2013-02-17 13:03:00,
2013-02-17 08:07:00,27.9,15.4,29.91,North,360,13.0,15.0,59,0.00,,,0.00,Wunderground v.1.15,2013-02-17 13:07:00,
2013-02-17 08:09:00,28.0,15.1,29.91,North,360,12.0,12.0,58,0.00,,,0.00,Wunderground v.1.15,2013-02-17 13:09:00,
2013-02-17 08:13:00,28.0,14.7,29.91,North,360,12.0,18.0,57,0.00,,,0.00,Wunderground v.1.15,2013-02-17 13:13:00,
2013-02-17 08:17:00,27.8,14.9,29.91,North,360,12.0,18.0,58,0.00,,,0.00,Wunderground v.1.15,2013-02-17 13:17:00,
2013-02-17 08:21:00,27.8,14.9,29.91,North,360,12.0,12.0,58,0.00,,,0.00,Wunderground v.1.15,2013-02-17 13:21:00,
2013-02-17 08:23:00,28.0,15.1,29.91,North,360,12.0,15.0,58,0.00,,,0.00,Wunderground v.1.15,2013-02-17 13:23:00,
2013-02-17 08:25:00,28.0,15.1,29.91,North,360,12.0,19.0,58,0.00,,,0.00,Wunderground v.1.15,2013-02-17 13:25:00,
2013-02-17 08:31:00,28.5,15.6,29.91,North,360,10.0,11.0,58,0.00,,,0.00,Wunderground v.1.15,2013-02-17 13:31:00,
2013-02-17 08:33:00,28.6,16.8,29.91,North,360,10.0,15.0,61,0.00,,,0.00,Wunderground v.1.15,2013-02-17 13:33:00,
2013-02-17 08:35:00,28.5,14.4,29.92,North,360,10.0,16.0,55,0.00,,,0.00,Wunderground v.1.15,2013-02-17 13:35:00,
2013-02-17 08:41:00,28.6,14.9,29.92,North,360,13.0,20.0,56,0.00,,,0.00,Wunderground v.1.15,2013-02-17 13:41:00,
2013-02-17 08:43:00,28.5,14.4,29.92,North,360,14.0,20.0,55,0.00,,,0.00,Wunderground v.1.15,2013-02-17 13:43:00,
2013-02-17 08:49:00,28.8,15.1,29.92,North,360,13.0,13.0,56,0.00,,,0.00,Wunderground v.1.15,2013-02-17 13:49:00,
2013-02-17 08:51:00,28.9,15.2,29.92,North,360,12.0,13.0,56,0.00,,,0.00,Wunderground v.1.15,2013-02-17 13:51:00,
2013-02-17 08:53:00,28.9,14.7,29.92,North,360,11.0,13.0,55,0.00,,,0.00,Wunderground v.1.15,2013-02-17 13:53:00,
2013-02-17 08:57:00,28.9,14.7,29.92,North,360,11.0,13.0,55,0.00,,,0.00,Wunderground v.1.15,2013-02-17 13:57:00,
2013-02-17 08:59:00,29.0,14.4,29.92,North,360,11.0,14.0,54,0.00,,,0.00,Wunderground v.1.15,2013-02-17 13:59:00,
2013-02-17 09:01:00,29.0,14.4,29.92,North,360,12.0,14.0,54,0.00,,,0.00,Wunderground v.1.15,2013-02-17 14:01:00,
2013-02-17 09:03:00,28.9,14.3,29.93,North,360,13.0,14.0,54,0.00,,,0.00,Wunderground v.1.15,2013-02-17 14:03:00,
2013-02-17 09:05:00,28.9,14.3,29.93,North,360,13.0,14.0,54,0.00,,,0.00,Wunderground v.1.15,2013-02-17 14:05:00,
2013-02-17 09:09:00,29.0,14.0,29.93,North,360,14.0,22.0,53,0.00,,,0.00,Wunderground v.1.15,2013-02-17 14:09:00,
2013-02-17 09:11:00,28.8,13.8,29.92,North,360,15.0,22.0,53,0.00,,,0.00,Wunderground v.1.15,2013-02-17 14:11:00,
2013-02-17 09:15:00,28.9,13.9,29.93,North,360,15.0,22.0,53,0.00,,,0.00,Wunderground v.1.15,2013-02-17 14:15:00,
2013-02-17 09:19:00,29.1,14.1,29.92,North,360,15.0,20.0,53,0.00,,,0.00,Wunderground v.1.15,2013-02-17 14:19:00,
2013-02-17 09:21:00,29.2,13.7,29.93,North,360,14.0,20.0,52,0.00,,,0.00,Wunderground v.1.15,2013-02-17 14:21:00,
2013-02-17 09:23:00,29.3,13.8,29.92,North,360,14.0,20.0,52,0.00,,,0.00,Wunderground v.1.15,2013-02-17 14:23:00,
2013-02-17 09:29:00,29.6,13.7,29.93,North,360,11.0,11.0,51,0.00,,,0.00,Wunderground v.1.15,2013-02-17 14:29:00,
2013-02-17 09:33:00,29.7,13.3,29.93,North,360,12.0,13.0,50,0.00,,,0.00,Wunderground v.1.15,2013-02-17 14:33:00,
2013-02-17 09:37:00,29.4,13.0,29.93,North,360,13.0,15.0,50,0.00,,,0.00,Wunderground v.1.15,2013-02-17 14:37:00,
2013-02-17 09:41:00,29.1,12.8,29.93,North,360,14.0,22.0,50,0.00,,,0.00,Wunderground v.1.15,2013-02-17 14:41:00,
2013-02-17 09:43:00,28.9,12.1,29.93,North,360,16.0,22.0,49,0.00,,,0.00,Wunderground v.1.15,2013-02-17 14:43:00,
2013-02-17 09:47:00,28.7,11.9,29.93,North,360,19.0,26.0,49,0.00,,,0.00,Wunderground v.1.15,2013-02-17 14:47:00,
2013-02-17 09:49:00,28.8,12.0,29.93,North,360,19.0,19.0,49,0.00,,,0.00,Wunderground v.1.15,2013-02-17 14:49:00,
2013-02-17 09:51:00,29.1,12.3,29.93,North,360,19.0,19.0,49,0.00,,,0.00,Wunderground v.1.15,2013-02-17 14:51:00,
2013-02-17 09:53:00,29.4,12.6,29.93,North,360,18.0,19.0,49,0.00,,,0.00,Wunderground v.1.15,2013-02-17 14:53:00,
2013-02-17 09:55:00,29.5,12.7,29.93,North,360,17.0,19.0,49,0.00,,,0.00,Wunderground v.1.15,2013-02-17 14:55:00,
2013-02-17 09:59:00,29.4,12.1,29.93,North,360,16.0,21.0,48,0.00,,,0.00,Wunderground v.1.15,2013-02-17 14:59:00,
2013-02-17 10:01:00,29.3,12.0,29.93,North,360,17.0,21.0,48,0.00,,,0.00,Wunderground v.1.15,2013-02-17 15:01:00,
2013-02-17 10:07:00,29.4,12.1,29.94,North,360,20.0,21.0,48,0.00,,,0.00,Wunderground v.1.15,2013-02-17 15:07:00,
2013-02-17 10:09:00,29.6,12.3,29.94,North,360,18.0,23.0,48,0.00,,,0.00,Wunderground v.1.15,2013-02-17 15:09:00,
2013-02-17 10:11:00,29.4,11.6,29.94,North,360,19.0,23.0,47,0.00,,,0.00,Wunderground v.1.15,2013-02-17 15:11:00,
2013-02-17 10:13:00,29.4,12.1,29.94,North,360,18.0,23.0,48,0.00,,,0.00,Wunderground v.1.15,2013-02-17 15:13:00,
2013-02-17 10:15:00,29.4,11.6,29.94,North,360,17.0,25.0,47,0.00,,,0.00,Wunderground v.1.15,2013-02-17 15:15:00,
2013-02-17 10:21:00,29.4,12.1,29.94,North,360,18.0,19.0,48,0.00,,,0.00,Wunderground v.1.15,2013-02-17 15:21:00,
2013-02-17 10:23:00,29.7,12.4,29.94,North,360,17.0,19.0,48,0.00,,,0.00,Wunderground v.1.15,2013-02-17 15:23:00,
2013-02-17 10:25:00,29.7,12.4,29.94,North,360,17.0,22.0,48,0.00,,,0.00,Wunderground v.1.15,2013-02-17 15:25:00,
2013-02-17 10:27:00,29.7,12.4,29.94,North,360,15.0,22.0,48,0.00,,,0.00,Wunderground v.1.15,2013-02-17 15:27:00,
2013-02-17 10:29:00,30.0,13.1,29.95,North,360,14.0,21.0,49,0.00,,,0.00,Wunderground v.1.15,2013-02-17 15:29:00,
2013-02-17 10:33:00,29.7,11.9,29.95,North,360,18.0,28.0,47,0.00,,,0.00,Wunderground v.1.15,2013-02-17 15:33:00,
2013-02-17 10:35:00,29.6,11.3,29.95,North,360,19.0,28.0,46,0.00,,,0.00,Wunderground v.1.15,2013-02-17 15:35:00,
2013-02-17 10:37:00,29.7,11.9,29.95,North,360,20.0,28.0,47,0.00,,,0.00,Wunderground v.1.15,2013-02-17 15:37:00,
2013-02-17 10:39:00,29.7,11.9,29.95,North,360,21.0,21.0,47,0.00,,,0.00,Wunderground v.1.15,2013-02-17 15:39:00,
2013-02-17 10:43:00,29.8,12.0,29.95,North,360,20.0,21.0,47,0.00,,,0.00,Wunderground v.1.15,2013-02-17 15:43:00,
2013-02-17 10:45:00,30.1,12.7,29.95,North,360,19.0,21.0,48,0.00,,,0.00,Wunderground v.1.15,2013-02-17 15:45:00,
2013-02-17 10:49:00,30.4,12.5,29.95,North,360,18.0,18.0,47,0.00,,,0.00,Wunderground v.1.15,2013-02-17 15:49:00,
2013-02-17 10:51:00,30.4,12.5,29.95,North,360,16.0,18.0,47,0.00,,,0.00,Wunderground v.1.15,2013-02-17 15:51:00,
2013-02-17 10:57:00,30.2,11.9,29.95,North,360,13.0,26.0,46,0.00,,,0.00,Wunderground v.1.15,2013-02-17 15:57:00,
2013-02-17 10:59:00,30.2,12.4,29.95,North,360,13.0,28.0,47,0.00,,,0.00,Wunderground v.1.15,2013-02-17 15:59:00,
2013-02-17 11:01:00,30.2,11.9,29.95,North,360,15.0,28.0,46,0.00,,,0.00,Wunderground v.1.15,2013-02-17 16:01:00,
2013-02-17 11:03:00,30.0,11.7,29.95,North,360,16.0,28.0,46,0.00,,,0.00,Wunderground v.1.15,2013-02-17 16:03:00,
2013-02-17 11:09:00,29.9,11.6,29.95,North,360,17.0,17.0,46,0.00,,,0.00,Wunderground v.1.15,2013-02-17 16:09:00,
2013-02-17 11:11:00,29.9,11.6,29.95,North,360,16.0,30.0,46,0.00,,,0.00,Wunderground v.1.15,2013-02-17 16:11:00,
2013-02-17 11:17:00,29.8,11.0,29.96,North,360,18.0,30.0,45,0.00,,,0.00,Wunderground v.1.15,2013-02-17 16:17:00,
2013-02-17 11:19:00,29.8,11.5,29.96,North,360,19.0,19.0,46,0.00,,,0.00,Wunderground v.1.15,2013-02-17 16:19:00,
2013-02-17 11:23:00,29.9,11.1,29.96,North,360,20.0,20.0,45,0.00,,,0.00,Wunderground v.1.15,2013-02-17 16:23:00,
2013-02-17 11:27:00,29.9,11.1,29.95,North,360,19.0,20.0,45,0.00,,,0.00,Wunderground v.1.15,2013-02-17 16:27:00,
2013-02-17 11:29:00,29.9,11.1,29.95,North,360,18.0,18.0,45,0.00,,,0.00,Wunderground v.1.15,2013-02-17 16:29:00,
2013-02-17 11:33:00,29.8,11.5,29.96,North,360,17.0,26.0,46,0.00,,,0.00,Wunderground v.1.15,2013-02-17 16:33:00,
2013-02-17 11:35:00,30.1,11.8,29.95,North,360,16.0,26.0,46,0.00,,,0.00,Wunderground v.1.15,2013-02-17 16:35:00,
2013-02-17 11:39:00,30.5,11.7,29.96,North,360,15.0,18.0,45,0.00,,,0.00,Wunderground v.1.15,2013-02-17 16:39:00,
2013-02-17 11:45:00,29.9,11.6,29.96,North,360,18.0,22.0,46,0.00,,,0.00,Wunderground v.1.15,2013-02-17 16:45:00,
2013-02-17 11:47:00,29.8,11.0,29.96,North,360,19.0,25.0,45,0.00,,,0.00,Wunderground v.1.15,2013-02-17 16:47:00,
2013-02-17 11:53:00,30.0,11.7,29.96,North,360,20.0,27.0,46,0.00,,,0.00,Wunderground v.1.15,2013-02-17 16:53:00,
2013-02-17 11:57:00,30.1,10.8,29.96,North,360,18.0,27.0,44,0.00,,,0.00,Wunderground v.1.15,2013-02-17 16:57:00,
2013-02-17 12:01:00,30.2,11.9,29.96,North,360,17.0,17.0,46,0.00,,,0.00,Wunderground v.1.15,2013-02-17 17:01:00,
2013-02-17 12:03:00,30.1,12.7,29.96,North,360,16.0,23.0,48,0.00,,,0.00,Wunderground v.1.15,2013-02-17 17:03:00,
2013-02-17 12:07:00,29.8,12.9,29.96,North,360,17.0,23.0,49,0.00,,,0.00,Wunderground v.1.15,2013-02-17 17:07:00,
2013-02-17 12:11:00,29.8,12.5,29.96,North,360,17.0,17.0,48,0.00,,,0.00,Wunderground v.1.15,2013-02-17 17:11:00,
2013-02-17 12:15:00,30.0,12.2,29.96,North,360,16.0,23.0,47,0.00,,,0.00,Wunderground v.1.15,2013-02-17 17:15:00,
2013-02-17 12:17:00,30.2,12.4,29.96,North,360,15.0,23.0,47,0.00,,,0.00,Wunderground v.1.15,2013-02-17 17:17:00,
2013-02-17 12:21:00,30.2,11.9,29.96,North,360,17.0,18.0,46,0.00,,,0.00,Wunderground v.1.15,2013-02-17 17:21:00,
2013-02-17 12:23:00,30.2,11.4,29.96,North,360,18.0,22.0,45,0.00,,,0.00,Wunderground v.1.15,2013-02-17 17:23:00,
2013-02-17 12:27:00,30.2,11.4,29.96,North,360,19.0,22.0,45,0.00,,,0.00,Wunderground v.1.15,2013-02-17 17:27:00,
2013-02-17 12:29:00,30.2,11.4,29.95,North,360,19.0,19.0,45,0.00,,,0.00,Wunderground v.1.15,2013-02-17 17:29:00,
2013-02-17 12:31:00,30.1,11.3,29.95,North,360,19.0,19.0,45,0.00,,,0.00,Wunderground v.1.15,2013-02-17 17:31:00,
2013-02-17 12:35:00,30.3,11.5,29.96,North,360,19.0,26.0,45,0.00,,,0.00,Wunderground v.1.15,2013-02-17 17:35:00,
2013-02-17 12:37:00,30.2,10.4,29.96,North,360,20.0,26.0,43,0.00,,,0.00,Wunderground v.1.15,2013-02-17 17:37:00,
2013-02-17 12:39:00,30.0,10.7,29.96,North,360,20.0,20.0,44,0.00,,,0.00,Wunderground v.1.15,2013-02-17 17:39:00,
2013-02-17 12:43:00,29.8,10.5,29.96,North,360,20.0,21.0,44,0.00,,,0.00,Wunderground v.1.15,2013-02-17 17:43:00,
2013-02-17 12:45:00,29.8,10.5,29.96,North,360,20.0,21.0,44,0.00,,,0.00,Wunderground v.1.15,2013-02-17 17:45:00,
2013-02-17 12:49:00,30.2,11.4,29.96,North,360,19.0,26.0,45,0.00,,,0.00,Wunderground v.1.15,2013-02-17 17:49:00,
2013-02-17 12:55:00,30.5,11.7,29.96,North,360,17.0,26.0,45,0.00,,,0.00,Wunderground v.1.15,2013-02-17 17:55:00,
2013-02-17 12:57:00,30.5,11.7,29.96,North,360,16.0,26.0,45,0.00,,,0.00,Wunderground v.1.15,2013-02-17 17:57:00,
2013-02-17 12:59:00,30.5,11.7,29.96,North,360,16.0,18.0,45,0.00,,,0.00,Wunderground v.1.15,2013-02-17 17:59:00,
2013-02-17 13:01:00,30.3,12.0,29.96,North,360,16.0,18.0,46,0.00,,,0.00,Wunderground v.1.15,2013-02-17 18:01:00,
2013-02-17 13:03:00,30.1,11.8,29.96,North,360,17.0,18.0,46,0.00,,,0.00,Wunderground v.1.15,2013-02-17 18:03:00,
2013-02-17 13:07:00,29.9,11.6,29.96,North,360,19.0,19.0,46,0.00,,,0.00,Wunderground v.1.15,2013-02-17 18:07:00,
2013-02-17 13:09:00,29.9,11.6,29.96,North,360,19.0,19.0,46,0.00,,,0.00,Wunderground v.1.15,2013-02-17 18:09:00,
2013-02-17 13:11:00,29.9,11.1,29.96,North,360,19.0,19.0,45,0.00,,,0.00,Wunderground v.1.15,2013-02-17 18:11:00,
2013-02-17 13:13:00,30.1,10.8,29.96,North,360,19.0,19.0,44,0.00,,,0.00,Wunderground v.1.15,2013-02-17 18:13:00,
2013-02-17 13:17:00,30.4,11.1,29.96,North,360,17.0,19.0,44,0.00,,,0.00,Wunderground v.1.15,2013-02-17 18:17:00,
2013-02-17 13:19:00,30.3,10.4,29.96,North,360,17.0,23.0,43,0.00,,,0.00,Wunderground v.1.15,2013-02-17 18:19:00,
2013-02-17 13:23:00,30.4,10.5,29.96,North,360,17.0,23.0,43,0.00,,,0.00,Wunderground v.1.15,2013-02-17 18:23:00,
2013-02-17 13:27:00,30.9,11.5,29.96,North,360,16.0,23.0,44,0.00,,,0.00,Wunderground v.1.15,2013-02-17 18:27:00,
2013-02-17 13:29:00,31.0,10.0,29.96,North,360,17.0,19.0,41,0.00,,,0.00,Wunderground v.1.15,2013-02-17 18:29:00,
2013-02-17 13:31:00,30.7,10.3,29.96,North,360,17.0,24.0,42,0.00,,,0.00,Wunderground v.1.15,2013-02-17 18:31:00,
2013-02-17 13:35:00,30.9,11.0,29.96,North,360,17.0,24.0,43,0.00,,,0.00,Wunderground v.1.15,2013-02-17 18:35:00,
2013-02-17 13:37:00,30.9,10.5,29.96,North,360,19.0,24.0,42,0.00,,,0.00,Wunderground v.1.15,2013-02-17 18:37:00,
2013-02-17 13:39:00,30.6,10.2,29.96,North,360,19.0,19.0,42,0.00,,,0.00,Wunderground v.1.15,2013-02-17 18:39:00,
2013-02-17 13:41:00,30.4,10.5,29.96,North,360,19.0,21.0,43,0.00,,,0.00,Wunderground v.1.15,2013-02-17 18:41:00,
2013-02-17 13:43:00,30.3,10.4,29.96,North,360,18.0,21.0,43,0.00,,,0.00,Wunderground v.1.15,2013-02-17 18:43:00,
2013-02-17 13:49:00,30.7,10.3,29.96,North,360,18.0,18.0,42,0.00,,,0.00,Wunderground v.1.15,2013-02-17 18:49:00,
2013-02-17 13:51:00,30.8,10.9,29.96,North,360,16.0,18.0,43,0.00,,,0.00,Wunderground v.1.15,2013-02-17 18:51:00,
2013-02-17 13:53:00,31.0,10.0,29.96,North,360,15.0,18.0,41,0.00,,,0.00,Wunderground v.1.15,2013-02-17 18:53:00,
2013-02-17 13:55:00,31.1,9.6,29.96,North,360,15.0,18.0,40,0.00,,,0.00,Wunderground v.1.15,2013-02-17 18:55:00,
2013-02-17 13:57:00,31.0,9.5,29.96,North,360,15.0,18.0,40,0.00,,,0.00,Wunderground v.1.15,2013-02-17 18:57:00,
2013-02-17 14:01:00,30.8,9.3,29.96,North,360,16.0,20.0,40,0.00,,,0.00,Wunderground v.1.15,2013-02-17 19:01:00,
2013-02-17 14:03:00,30.7,9.2,29.96,North,360,18.0,21.0,40,0.00,,,0.00,Wunderground v.1.15,2013-02-17 19:03:00,
2013-02-17 14:07:00,30.6,9.7,29.96,North,360,18.0,25.0,41,0.00,,,0.00,Wunderground v.1.15,2013-02-17 19:07:00,
2013-02-17 14:09:00,30.8,9.8,29.96,North,360,18.0,18.0,41,0.00,,,0.00,Wunderground v.1.15,2013-02-17 19:09:00,
2013-02-17 14:13:00,31.0,10.0,29.96,North,360,18.0,21.0,41,0.00,,,0.00,Wunderground v.1.15,2013-02-17 19:13:00,
2013-02-17 14:15:00,30.9,9.4,29.96,North,360,19.0,21.0,40,0.00,,,0.00,Wunderground v.1.15,2013-02-17 19:15:00,
2013-02-17 14:17:00,30.8,8.7,29.97,North,360,19.0,25.0,39,0.00,,,0.00,Wunderground v.1.15,2013-02-17 19:17:00,
2013-02-17 14:21:00,30.5,9.0,29.96,North,360,20.0,20.0,40,0.00,,,0.00,Wunderground v.1.15,2013-02-17 19:21:00,
2013-02-17 14:23:00,30.5,9.0,29.97,North,360,20.0,20.0,40,0.00,,,0.00,Wunderground v.1.15,2013-02-17 19:23:00,
2013-02-17 14:27:00,30.5,9.6,29.97,North,360,18.0,20.0,41,0.00,,,0.00,Wunderground v.1.15,2013-02-17 19:27:00,
2013-02-17 14:29:00,30.7,9.7,29.97,North,360,17.0,25.0,41,0.00,,,0.00,Wunderground v.1.15,2013-02-17 19:29:00,
2013-02-17 14:33:00,30.6,10.2,29.97,North,360,18.0,25.0,42,0.00,,,0.00,Wunderground v.1.15,2013-02-17 19:33:00,
2013-02-17 14:35:00,30.7,9.7,29.97,North,360,18.0,25.0,41,0.00,,,0.00,Wunderground v.1.15,2013-02-17 19:35:00,
2013-02-17 14:37:00,30.7,10.3,29.97,North,360,19.0,25.0,42,0.00,,,0.00,Wunderground v.1.15,2013-02-17 19:37:00,
2013-02-17 14:41:00,30.9,10.5,29.97,North,360,17.0,23.0,42,0.00,,,0.00,Wunderground v.1.15,2013-02-17 19:41:00,
2013-02-17 14:43:00,30.7,10.3,29.97,North,360,18.0,25.0,42,0.00,,,0.00,Wunderground v.1.15,2013-02-17 19:43:00,
2013-02-17 14:45:00,30.8,10.4,29.97,North,360,19.0,25.0,42,0.00,,,0.00,Wunderground v.1.15,2013-02-17 19:45:00,
2013-02-17 14:47:00,30.7,9.7,29.97,North,360,19.0,25.0,41,0.00,,,0.00,Wunderground v.1.15,2013-02-17 19:47:00,
2013-02-17 14:53:00,30.5,9.0,29.97,North,360,20.0,24.0,40,0.00,,,0.00,Wunderground v.1.15,2013-02-17 19:53:00,
2013-02-17 14:55:00,30.2,9.3,29.98,North,360,21.0,24.0,41,0.00,,,0.00,Wunderground v.1.15,2013-02-17 19:55:00,
2013-02-17 14:57:00,30.3,9.9,29.97,North,360,21.0,24.0,42,0.00,,,0.00,Wunderground v.1.15,2013-02-17 19:57:00,
2013-02-17 15:01:00,30.6,9.7,29.98,North,360,20.0,24.0,41,0.00,,,0.00,Wunderground v.1.15,2013-02-17 20:01:00,
2013-02-17 15:03:00,30.8,9.8,29.98,North,360,18.0,27.0,41,0.00,,,0.00,Wunderground v.1.15,2013-02-17 20:03:00,
2013-02-17 15:07:00,30.7,9.7,29.97,North,360,18.0,27.0,41,0.00,,,0.00,Wunderground v.1.15,2013-02-17 20:07:00,
2013-02-17 15:09:00,30.5,9.6,29.97,North,360,18.0,19.0,41,0.00,,,0.00,Wunderground v.1.15,2013-02-17 20:09:00,
2013-02-17 15:13:00,30.6,9.1,29.98,North,360,18.0,20.0,40,0.00,,,0.00,Wunderground v.1.15,2013-02-17 20:13:00,
2013-02-17 15:15:00,30.6,9.1,29.98,North,360,18.0,27.0,40,0.00,,,0.00,Wunderground v.1.15,2013-02-17 20:15:00,
2013-02-17 15:17:00,30.4,8.4,29.98,North,360,19.0,27.0,39,0.00,,,0.00,Wunderground v.1.15,2013-02-17 20:17:00,
2013-02-17 15:19:00,30.4,8.9,29.98,North,360,19.0,21.0,40,0.00,,,0.00,Wunderground v.1.15,2013-02-17 20:19:00,
2013-02-17 15:23:00,30.3,8.8,29.98,North,360,20.0,21.0,40,0.00,,,0.00,Wunderground v.1.15,2013-02-17 20:23:00,
2013-02-17 15:25:00,30.3,9.4,29.98,North,360,20.0,21.0,41,0.00,,,0.00,Wunderground v.1.15,2013-02-17 20:25:00,
2013-02-17 15:29:00,30.7,10.3,29.98,North,360,18.0,18.0,42,0.00,,,0.00,Wunderground v.1.15,2013-02-17 20:29:00,
2013-02-17 15:33:00,30.6,10.2,29.98,North,360,17.0,26.0,42,0.00,,,0.00,Wunderground v.1.15,2013-02-17 20:33:00,
2013-02-17 15:35:00,30.5,9.6,29.99,North,360,16.0,26.0,41,0.00,,,0.00,Wunderground v.1.15,2013-02-17 20:35:00,
2013-02-17 15:39:00,30.2,8.7,29.99,North,360,19.0,20.0,40,0.00,,,0.00,Wunderground v.1.15,2013-02-17 20:39:00,
2013-02-17 15:41:00,30.2,9.3,29.99,North,360,18.0,20.0,41,0.00,,,0.00,Wunderground v.1.15,2013-02-17 20:41:00,
2013-02-17 15:43:00,30.3,9.4,29.99,North,360,18.0,20.0,41,0.00,,,0.00,Wunderground v.1.15,2013-02-17 20:43:00,
2013-02-17 15:47:00,30.1,10.3,29.99,North,360,17.0,20.0,43,0.00,,,0.00,Wunderground v.1.15,2013-02-17 20:47:00,
2013-02-17 15:51:00,30.0,9.6,30.00,North,360,17.0,17.0,42,0.00,,,0.00,Wunderground v.1.15,2013-02-17 20:51:00,
2013-02-17 15:55:00,30.1,9.7,30.00,North,360,17.0,18.0,42,0.00,,,0.00,Wunderground v.1.15,2013-02-17 20:55:00,
2013-02-17 15:57:00,30.3,9.9,30.00,North,360,17.0,18.0,42,0.00,,,0.00,Wunderground v.1.15,2013-02-17 20:57:00,
2013-02-17 15:59:00,30.3,8.3,30.00,North,360,16.0,16.0,39,0.00,,,0.00,Wunderground v.1.15,2013-02-17 20:59:00,
2013-02-17 16:01:00,30.5,8.4,30.00,North,360,16.0,20.0,39,0.00,,,0.00,Wunderground v.1.15,2013-02-17 21:01:00,
2013-02-17 16:03:00,30.4,8.9,30.00,North,360,16.0,20.0,40,0.00,,,0.00,Wunderground v.1.15,2013-02-17 21:03:00,
2013-02-17 16:05:00,30.3,8.8,30.00,North,360,17.0,20.0,40,0.00,,,0.00,Wunderground v.1.15,2013-02-17 21:05:00,
2013-02-17 16:09:00,30.4,8.9,30.00,North,360,17.0,23.0,40,0.00,,,0.00,Wunderground v.1.15,2013-02-17 21:09:00,
2013-02-17 16:11:00,30.4,8.9,30.00,North,360,18.0,24.0,40,0.00,,,0.00,Wunderground v.1.15,2013-02-17 21:11:00,
2013-02-17 16:15:00,30.2,8.7,30.00,North,360,19.0,28.0,40,0.00,,,0.00,Wunderground v.1.15,2013-02-17 21:15:00,
2013-02-17 16:17:00,30.2,8.7,30.00,North,360,20.0,28.0,40,0.00,,,0.00,Wunderground v.1.15,2013-02-17 21:17:00,
2013-02-17 16:21:00,30.2,8.7,30.00,North,360,22.0,22.0,40,0.00,,,0.00,Wunderground v.1.15,2013-02-17 21:21:00,
2013-02-17 16:23:00,30.3,8.8,30.00,North,360,21.0,22.0,40,0.00,,,0.00,Wunderground v.1.15,2013-02-17 21:23:00,
2013-02-17 16:25:00,30.5,9.0,30.00,North,360,20.0,27.0,40,0.00,,,0.00,Wunderground v.1.15,2013-02-17 21:25:00,
2013-02-17 16:31:00,30.5,8.4,30.00,North,360,18.0,20.0,39,0.00,,,0.00,Wunderground v.1.15,2013-02-17 21:31:00,
2013-02-17 16:33:00,30.5,8.4,30.00,North,360,19.0,20.0,39,0.00,,,0.00,Wunderground v.1.15,2013-02-17 21:33:00,
2013-02-17 16:37:00,30.5,9.0,30.00,North,360,18.0,20.0,40,0.00,,,0.00,Wunderground v.1.15,2013-02-17 21:37:00,
2013-02-17 16:41:00,30.3,8.8,30.00,North,360,17.0,22.0,40,0.00,,,0.00,Wunderground v.1.15,2013-02-17 21:41:00,
2013-02-17 16:43:00,30.2,8.7,30.01,North,360,17.0,30.0,40,0.00,,,0.00,Wunderground v.1.15,2013-02-17 21:43:00,
2013-02-17 16:47:00,29.9,8.5,30.01,North,360,19.0,30.0,40,0.00,,,0.00,Wunderground v.1.15,2013-02-17 21:47:00,
2013-02-17 16:49:00,29.7,8.3,30.01,North,360,20.0,20.0,40,0.00,,,0.00,Wunderground v.1.15,2013-02-17 21:49:00,
2013-02-17 16:51:00,29.6,8.2,30.01,North,360,21.0,21.0,40,0.00,,,0.00,Wunderground v.1.15,2013-02-17 21:51:00,
2013-02-17 16:53:00,29.7,8.3,30.01,North,360,21.0,21.0,40,0.00,,,0.00,Wunderground v.1.15,2013-02-17 21:53:00,
2013-02-17 16:55:00,29.7,8.3,30.01,North,360,20.0,21.0,40,0.00,,,0.00,Wunderground v.1.15,2013-02-17 21:55:00,
2013-02-17 16:57:00,29.7,8.3,30.01,North,360,20.0,21.0,40,0.00,,,0.00,Wunderground v.1.15,2013-02-17 21:57:00,
2013-02-17 17:01:00,29.7,7.7,30.02,North,360,19.0,23.0,39,0.00,,,0.00,Wunderground v.1.15,2013-02-17 22:01:00,
2013-02-17 17:03:00,29.6,7.6,30.02,North,360,20.0,23.0,39,0.00,,,0.00,Wunderground v.1.15,2013-02-17 22:03:00,
2013-02-17 17:05:00,29.5,7.5,30.02,North,360,20.0,25.0,39,0.00,,,0.00,Wunderground v.1.15,2013-02-17 22:05:00,
2013-02-17 17:11:00,29.6,7.6,30.02,North,360,22.0,24.0,39,0.00,,,0.00,Wunderground v.1.15,2013-02-17 22:11:00,
2013-02-17 17:13:00,29.4,7.5,30.02,North,360,21.0,24.0,39,0.00,,,0.00,Wunderground v.1.15,2013-02-17 22:13:00,
2013-02-17 17:15:00,29.3,7.4,30.02,North,360,21.0,24.0,39,0.00,,,0.00,Wunderground v.1.15,2013-02-17 22:15:00,
2013-02-17 17:17:00,29.3,7.9,30.03,North,360,20.0,24.0,40,0.00,,,0.00,Wunderground v.1.15,2013-02-17 22:17:00,
2013-02-17 17:21:00,29.6,8.7,30.03,North,360,18.0,20.0,41,0.00,,,0.00,Wunderground v.1.15,2013-02-17 22:21:00,
2013-02-17 17:25:00,29.7,8.3,30.04,North,360,15.0,22.0,40,0.00,,,0.00,Wunderground v.1.15,2013-02-17 22:25:00,
2013-02-17 17:27:00,29.6,8.2,30.03,North,360,15.0,22.0,40,0.00,,,0.00,Wunderground v.1.15,2013-02-17 22:27:00,
2013-02-17 17:29:00,29.6,8.2,30.03,North,360,15.0,17.0,40,0.00,,,0.00,Wunderground v.1.15,2013-02-17 22:29:00,
2013-02-17 17:33:00,29.4,8.0,30.04,North,360,17.0,18.0,40,0.00,,,0.00,Wunderground v.1.15,2013-02-17 22:33:00,
2013-02-17 17:37:00,29.4,8.0,30.04,North,360,17.0,21.0,40,0.00,,,0.00,Wunderground v.1.15,2013-02-17 22:37:00,
2013-02-17 17:41:00,29.3,7.9,30.04,North,360,15.0,19.0,40,0.00,,,0.00,Wunderground v.1.15,2013-02-17 22:41:00,
2013-02-17 17:45:00,28.8,6.9,30.04,North,360,17.0,26.0,39,0.00,,,0.00,Wunderground v.1.15,2013-02-17 22:45:00,
2013-02-17 17:51:00,28.7,7.4,30.04,North,360,20.0,20.0,40,0.00,,,0.00,Wunderground v.1.15,2013-02-17 22:51:00,
2013-02-17 17:53:00,28.6,7.3,30.05,North,360,21.0,21.0,40,0.00,,,0.00,Wunderground v.1.15,2013-02-17 22:53:00,
2013-02-17 17:55:00,28.6,7.3,30.05,North,360,19.0,21.0,40,0.00,,,0.00,Wunderground v.1.15,2013-02-17 22:55:00,
2013-02-17 17:57:00,28.6,7.3,30.05,North,360,19.0,21.0,40,0.00,,,0.00,Wunderground v.1.15,2013-02-17 22:57:00,
2013-02-17 17:59:00,28.5,7.2,30.05,North,360,19.0,28.0,40,0.00,,,0.00,Wunderground v.1.15,2013-02-17 22:59:00,
2013-02-17 18:01:00,28.5,7.8,30.05,North,360,19.0,28.0,41,0.00,,,0.00,Wunderground v.1.15,2013-02-17 23:01:00,
2013-02-17 18:03:00,28.5,7.8,30.05,North,360,18.0,28.0,41,0.00,,,0.00,Wunderground v.1.15,2013-02-17 23:03:00,
2013-02-17 18:07:00,28.5,7.8,30.06,North,360,18.0,29.0,41,0.00,,,0.00,Wunderground v.1.15,2013-02-17 23:07:00,
2013-02-17 18:11:00,28.5,7.8,30.06,North,360,18.0,18.0,41,0.00,,,0.00,Wunderground v.1.15,2013-02-17 23:11:00,
2013-02-17 18:13:00,28.5,8.3,30.06,North,360,18.0,18.0,42,0.00,,,0.00,Wunderground v.1.15,2013-02-17 23:13:00,
2013-02-17 18:17:00,28.6,8.4,30.07,North,360,15.0,18.0,42,0.00,,,0.00,Wunderground v.1.15,2013-02-17 23:17:00,
2013-02-17 18:19:00,28.6,8.4,30.06,North,360,13.0,15.0,42,0.00,,,0.00,Wunderground v.1.15,2013-02-17 23:19:00,
2013-02-17 18:23:00,28.6,8.4,30.06,North,360,12.0,15.0,42,0.00,,,0.00,Wunderground v.1.15,2013-02-17 23:23:00,
2013-02-17 18:25:00,28.6,8.4,30.07,North,360,12.0,15.0,42,0.00,,,0.00,Wunderground v.1.15,2013-02-17 23:25:00,
2013-02-17 18:31:00,28.7,8.5,30.06,North,360,13.0,13.0,42,0.00,,,0.00,Wunderground v.1.15,2013-02-17 23:31:00,
2013-02-17 18:33:00,28.6,8.4,30.07,North,360,12.0,13.0,42,0.00,,,0.00,Wunderground v.1.15,2013-02-17 23:33:00,
2013-02-17 18:35:00,28.6,8.4,30.07,North,360,13.0,19.0,42,0.00,,,0.00,Wunderground v.1.15,2013-02-17 23:35:00,
2013-02-17 18:41:00,28.4,8.2,30.07,North,360,14.0,15.0,42,0.00,,,0.00,Wunderground v.1.15,2013-02-17 23:41:00,
2013-02-17 18:43:00,28.4,8.2,30.07,North,360,14.0,16.0,42,0.00,,,0.00,Wunderground v.1.15,2013-02-17 23:43:00,
2013-02-17 18:49:00,28.4,8.2,30.08,North,360,14.0,14.0,42,0.00,,,0.00,Wunderground v.1.15,2013-02-17 23:49:00,
2013-02-17 18:53:00,28.5,8.3,30.08,North,360,14.0,17.0,42,0.00,,,0.00,Wunderground v.1.15,2013-02-17 23:53:00,
2013-02-17 18:55:00,28.5,8.3,30.08,North,360,13.0,17.0,42,0.00,,,0.00,Wunderground v.1.15,2013-02-17 23:55:00,
2013-02-17 18:57:00,28.5,8.3,30.08,North,360,12.0,19.0,42,0.00,,,0.00,Wunderground v.1.15,2013-02-17 23:57:00,
2013-02-17 18:59:00,28.5,8.3,30.08,North,360,14.0,17.0,42,0.00,,,0.00,Wunderground v.1.15,2013-02-17 23:59:00,
2013-02-17 19:03:00,28.4,8.2,30.08,North,360,14.0,18.0,42,0.00,,,0.00,Wunderground v.1.15,2013-02-18 00:03:00,
2013-02-17 19:05:00,28.4,8.2,30.08,North,360,14.0,18.0,42,0.00,,,0.00,Wunderground v.1.15,2013-02-18 00:05:00,
2013-02-17 19:07:00,28.3,8.1,30.08,North,360,14.0,18.0,42,0.00,,,0.00,Wunderground v.1.15,2013-02-18 00:07:00,
2013-02-17 19:09:00,28.3,8.1,30.08,North,360,13.0,13.0,42,0.00,,,0.00,Wunderground v.1.15,2013-02-18 00:09:00,
2013-02-17 19:15:00,28.2,8.0,30.08,North,360,13.0,15.0,42,0.00,,,0.00,Wunderground v.1.15,2013-02-18 00:15:00,
2013-02-17 19:17:00,28.2,8.0,30.08,North,360,14.0,27.0,42,0.00,,,0.00,Wunderground v.1.15,2013-02-18 00:17:00,
2013-02-17 19:21:00,28.2,8.5,30.08,North,360,17.0,20.0,43,0.00,,,0.00,Wunderground v.1.15,2013-02-18 00:21:00,
2013-02-17 19:23:00,28.2,8.5,30.08,North,360,18.0,20.0,43,0.00,,,0.00,Wunderground v.1.15,2013-02-18 00:23:00,
2013-02-17 19:25:00,28.3,8.6,30.09,North,360,17.0,24.0,43,0.00,,,0.00,Wunderground v.1.15,2013-02-18 00:25:00,
2013-02-17 19:29:00,28.3,8.6,30.09,North,360,15.0,15.0,43,0.00,,,0.00,Wunderground v.1.15,2013-02-18 00:29:00,
2013-02-17 19:31:00,28.2,8.5,30.09,North,360,15.0,15.0,43,0.00,,,0.00,Wunderground v.1.15,2013-02-18 00:31:00,
2013-02-17 19:33:00,28.3,8.6,30.09,North,360,15.0,15.0,43,0.00,,,0.00,Wunderground v.1.15,2013-02-18 00:33:00,
2013-02-17 19:35:00,28.2,8.5,30.09,North,360,15.0,15.0,43,0.00,,,0.00,Wunderground v.1.15,2013-02-18 00:35:00,
2013-02-17 19:39:00,28.2,9.0,30.10,North,360,14.0,15.0,44,0.00,,,0.00,Wunderground v.1.15,2013-02-18 00:39:00,
2013-02-17 19:43:00,28.3,9.1,30.10,North,360,13.0,19.0,44,0.00,,,0.00,Wunderground v.1.15,2013-02-18 00:43:00,
2013-02-17 19:45:00,28.2,9.0,30.10,North,360,14.0,19.0,44,0.00,,,0.00,Wunderground v.1.15,2013-02-18 00:45:00,
2013-02-17 19:47:00,28.1,9.0,30.10,North,360,14.0,21.0,44,0.00,,,0.00,Wunderground v.1.15,2013-02-18 00:47:00,
2013-02-17 19:49:00,28.1,9.0,30.10,North,360,14.0,17.0,44,0.00,,,0.00,Wunderground v.1.15,2013-02-18 00:49:00,
2013-02-17 19:53:00,28.0,8.9,30.10,North,360,16.0,17.0,44,0.00,,,0.00,Wunderground v.1.15,2013-02-18 00:53:00,
2013-02-17 19:55:00,28.0,8.9,30.11,North,360,16.0,17.0,44,0.00,,,0.00,Wunderground v.1.15,2013-02-18 00:55:00,
2013-02-17 19:57:00,28.0,8.9,30.11,North,360,16.0,25.0,44,0.00,,,0.00,Wunderground v.1.15,2013-02-18 00:57:00,
2013-02-17 20:01:00,27.9,9.3,30.11,North,360,16.0,21.0,45,0.00,,,0.00,Wunderground v.1.15,2013-02-18 01:01:00,
2013-02-17 20:03:00,27.8,9.2,30.11,North,360,17.0,21.0,45,0.00,,,0.00,Wunderground v.1.15,2013-02-18 01:03:00,
2013-02-17 20:05:00,27.8,9.2,30.11,North,360,17.0,21.0,45,0.00,,,0.00,Wunderground v.1.15,2013-02-18 01:05:00,
2013-02-17 20:09:00,27.9,9.3,30.11,North,360,15.0,15.0,45,0.00,,,0.00,Wunderground v.1.15,2013-02-18 01:09:00,
2013-02-17 20:11:00,27.9,9.3,30.11,North,360,15.0,18.0,45,0.00,,,0.00,Wunderground v.1.15,2013-02-18 01:11:00,
2013-02-17 20:13:00,27.8,9.7,30.11,North,360,14.0,18.0,46,0.00,,,0.00,Wunderground v.1.15,2013-02-18 01:13:00,
2013-02-17 20:19:00,27.6,9.5,30.12,North,360,15.0,15.0,46,0.00,,,0.00,Wunderground v.1.15,2013-02-18 01:19:00,
2013-02-17 20:21:00,27.6,9.5,30.12,North,360,15.0,15.0,46,0.00,,,0.00,Wunderground v.1.15,2013-02-18 01:21:00,
2013-02-17 20:25:00,27.4,9.8,30.12,North,360,15.0,15.0,47,0.00,,,0.00,Wunderground v.1.15,2013-02-18 01:25:00,
2013-02-17 20:27:00,27.5,9.9,30.12,North,360,15.0,15.0,47,0.00,,,0.00,Wunderground v.1.15,2013-02-18 01:27:00,
2013-02-17 20:31:00,27.4,9.8,30.12,North,360,15.0,16.0,47,0.00,,,0.00,Wunderground v.1.15,2013-02-18 01:31:00,
2013-02-17 20:35:00,27.3,9.7,30.13,North,360,16.0,24.0,47,0.00,,,0.00,Wunderground v.1.15,2013-02-18 01:35:00,
2013-02-17 20:37:00,27.2,10.1,30.13,North,360,16.0,24.0,48,0.00,,,0.00,Wunderground v.1.15,2013-02-18 01:37:00,
2013-02-17 20:39:00,27.1,9.5,30.13,North,360,17.0,22.0,47,0.00,,,0.00,Wunderground v.1.15,2013-02-18 01:39:00,
2013-02-17 20:43:00,27.1,10.0,30.13,North,360,19.0,22.0,48,0.00,,,0.00,Wunderground v.1.15,2013-02-18 01:43:00,
2013-02-17 20:45:00,27.0,9.9,30.14,North,360,19.0,22.0,48,0.00,,,0.00,Wunderground v.1.15,2013-02-18 01:45:00,
2013-02-17 20:47:00,27.0,9.4,30.14,North,360,20.0,25.0,47,0.00,,,0.00,Wunderground v.1.15,2013-02-18 01:47:00,
2013-02-17 20:51:00,27.0,9.9,30.14,North,360,19.0,20.0,48,0.00,,,0.00,Wunderground v.1.15,2013-02-18 01:51:00,
2013-02-17 20:53:00,27.0,9.9,30.14,North,360,19.0,20.0,48,0.00,,,0.00,Wunderground v.1.15,2013-02-18 01:53:00,
2013-02-17 20:57:00,26.9,9.8,30.14,North,360,17.0,21.0,48,0.00,,,0.00,Wunderground v.1.15,2013-02-18 01:57:00,
2013-02-17 21:01:00,26.9,10.3,30.14,North,360,16.0,16.0,49,0.00,,,0.00,Wunderground v.1.15,2013-02-18 02:01:00,
2013-02-17 21:03:00,26.9,10.3,30.14,North,360,17.0,18.0,49,0.00,,,0.00,Wunderground v.1.15,2013-02-18 02:03:00,
2013-02-17 21:05:00,26.9,10.3,30.14,North,360,18.0,23.0,49,0.00,,,0.00,Wunderground v.1.15,2013-02-18 02:05:00,
2013-02-17 21:07:00,26.8,10.2,30.14,North,360,19.0,23.0,49,0.00,,,0.00,Wunderground v.1.15,2013-02-18 02:07:00,
2013-02-17 21:09:00,26.8,10.2,30.14,North,360,19.0,32.0,49,0.00,,,0.00,Wunderground v.1.15,2013-02-18 02:09:00,
2013-02-17 21:11:00,26.7,10.1,30.14,North,360,20.0,32.0,49,0.00,,,0.00,Wunderground v.1.15,2013-02-18 02:11:00,
2013-02-17 21:13:00,26.7,10.5,30.15,North,360,20.0,32.0,50,0.00,,,0.00,Wunderground v.1.15,2013-02-18 02:13:00,
2013-02-17 21:17:00,26.8,10.6,30.15,North,360,18.0,32.0,50,0.00,,,0.00,Wunderground v.1.15,2013-02-18 02:17:00,
2013-02-17 21:21:00,26.8,10.6,30.15,North,360,17.0,21.0,50,0.00,,,0.00,Wunderground v.1.15,2013-02-18 02:21:00,
2013-02-17 21:23:00,26.8,11.1,30.15,North,360,17.0,21.0,51,0.00,,,0.00,Wunderground v.1.15,2013-02-18 02:23:00,
2013-02-17 21:27:00,26.9,11.2,30.15,North,360,16.0,21.0,51,0.00,,,0.00,Wunderground v.1.15,2013-02-18 02:27:00,
2013-02-17 21:31:00,26.8,11.1,30.15,North,360,14.0,15.0,51,0.00,,,0.00,Wunderground v.1.15,2013-02-18 02:31:00,
2013-02-17 21:33:00,26.7,11.0,30.15,North,360,15.0,17.0,51,0.00,,,0.00,Wunderground v.1.15,2013-02-18 02:33:00,
2013-02-17 21:35:00,26.7,11.0,30.15,North,360,15.0,21.0,51,0.00,,,0.00,Wunderground v.1.15,2013-02-18 02:35:00,
2013-02-17 21:39:00,26.6,11.3,30.16,North,360,17.0,28.0,52,0.00,,,0.00,Wunderground v.1.15,2013-02-18 02:39:00,
2013-02-17 21:41:00,26.5,11.2,30.16,North,360,18.0,28.0,52,0.00,,,0.00,Wunderground v.1.15,2013-02-18 02:41:00,
2013-02-17 21:45:00,26.6,11.3,30.16,North,360,16.0,28.0,52,0.00,,,0.00,Wunderground v.1.15,2013-02-18 02:45:00,
2013-02-17 21:47:00,26.6,11.3,30.16,North,360,16.0,28.0,52,0.00,,,0.00,Wunderground v.1.15,2013-02-18 02:47:00,
2013-02-17 21:49:00,26.6,11.3,30.16,North,360,15.0,20.0,52,0.00,,,0.00,Wunderground v.1.15,2013-02-18 02:49:00,
2013-02-17 21:51:00,26.6,10.9,30.16,North,360,15.0,20.0,51,0.00,,,0.00,Wunderground v.1.15,2013-02-18 02:51:00,
2013-02-17 21:55:00,26.6,11.3,30.16,North,360,16.0,20.0,52,0.00,,,0.00,Wunderground v.1.15,2013-02-18 02:55:00,
2013-02-17 21:57:00,26.6,10.9,30.17,North,360,16.0,20.0,51,0.00,,,0.00,Wunderground v.1.15,2013-02-18 02:57:00,
2013-02-17 22:01:00,26.6,10.9,30.17,North,360,16.0,16.0,51,0.00,,,0.00,Wunderground v.1.15,2013-02-18 03:01:00,
2013-02-17 22:03:00,26.6,10.9,30.17,North,360,15.0,16.0,51,0.00,,,0.00,Wunderground v.1.15,2013-02-18 03:03:00,
2013-02-17 22:05:00,26.6,10.9,30.17,North,360,15.0,16.0,51,0.00,,,0.00,Wunderground v.1.15,2013-02-18 03:05:00,
2013-02-17 22:07:00,26.6,10.9,30.17,North,360,13.0,16.0,51,0.00,,,0.00,Wunderground v.1.15,2013-02-18 03:07:00,
2013-02-17 22:11:00,26.6,10.4,30.17,North,360,12.0,13.0,50,0.00,,,0.00,Wunderground v.1.15,2013-02-18 03:11:00,
2013-02-17 22:15:00,26.6,10.4,30.17,North,360,13.0,16.0,50,0.00,,,0.00,Wunderground v.1.15,2013-02-18 03:15:00,
2013-02-17 22:19:00,26.6,10.4,30.17,North,360,15.0,15.0,50,0.00,,,0.00,Wunderground v.1.15,2013-02-18 03:19:00,
2013-02-17 22:21:00,26.6,10.4,30.17,North,360,14.0,15.0,50,0.00,,,0.00,Wunderground v.1.15,2013-02-18 03:21:00,
2013-02-17 22:25:00,26.6,10.0,30.18,North,360,15.0,20.0,49,0.00,,,0.00,Wunderground v.1.15,2013-02-18 03:25:00,
2013-02-17 22:27:00,26.5,9.9,30.17,North,360,14.0,20.0,49,0.00,,,0.00,Wunderground v.1.15,2013-02-18 03:27:00,
2013-02-17 22:31:00,26.6,10.0,30.17,North,360,15.0,15.0,49,0.00,,,0.00,Wunderground v.1.15,2013-02-18 03:31:00,
2013-02-17 22:35:00,26.7,10.1,30.17,North,360,13.0,15.0,49,0.00,,,0.00,Wunderground v.1.15,2013-02-18 03:35:00,
2013-02-17 22:39:00,26.6,9.5,30.18,North,360,12.0,12.0,48,0.00,,,0.00,Wunderground v.1.15,2013-02-18 03:39:00,
2013-02-17 22:41:00,26.5,9.4,30.17,North,360,12.0,20.0,48,0.00,,,0.00,Wunderground v.1.15,2013-02-18 03:41:00,
2013-02-17 22:43:00,26.4,9.3,30.17,North,360,14.0,20.0,48,0.00,,,0.00,Wunderground v.1.15,2013-02-18 03:43:00,
2013-02-17 22:47:00,26.4,9.3,30.17,North,360,16.0,22.0,48,0.00,,,0.00,Wunderground v.1.15,2013-02-18 03:47:00,
2013-02-17 22:49:00,26.4,9.3,30.17,North,360,16.0,22.0,48,0.00,,,0.00,Wunderground v.1.15,2013-02-18 03:49:00,
2013-02-17 22:51:00,26.4,9.3,30.17,North,360,17.0,22.0,48,0.00,,,0.00,Wunderground v.1.15,2013-02-18 03:51:00,
2013-02-17 22:57:00,26.3,9.2,30.18,North,360,16.0,22.0,48,0.00,,,0.00,Wunderground v.1.15,2013-02-18 03:57:00,
2013-02-17 22:59:00,26.4,9.3,30.18,North,360,16.0,16.0,48,0.00,,,0.00,Wunderground v.1.15,2013-02-18 03:59:00,
2013-02-17 23:03:00,26.3,9.2,30.18,North,360,16.0,18.0,48,0.00,,,0.00,Wunderground v.1.15,2013-02-18 04:03:00,
2013-02-17 23:07:00,26.3,9.2,30.18,North,360,16.0,18.0,48,0.00,,,0.00,Wunderground v.1.15,2013-02-18 04:07:00,
2013-02-17 23:11:00,26.3,9.2,30.19,North,360,17.0,17.0,48,0.00,,,0.00,Wunderground v.1.15,2013-02-18 04:11:00,
2013-02-17 23:15:00,26.4,9.3,30.19,North,360,13.0,17.0,48,0.00,,,0.00,Wunderground v.1.15,2013-02-18 04:15:00,
2013-02-17 23:17:00,26.4,9.3,30.19,North,360,13.0,17.0,48,0.00,,,0.00,Wunderground v.1.15,2013-02-18 04:17:00,
2013-02-17 23:21:00,26.3,9.2,30.19,North,360,12.0,21.0,48,0.00,,,0.00,Wunderground v.1.15,2013-02-18 04:21:00,
2013-02-17 23:23:00,26.3,9.2,30.19,North,360,13.0,21.0,48,0.00,,,0.00,Wunderground v.1.15,2013-02-18 04:23:00,
2013-02-17 23:27:00,26.3,9.2,30.19,North,360,15.0,21.0,48,0.00,,,0.00,Wunderground v.1.15,2013-02-18 04:27:00,
2013-02-17 23:29:00,26.3,9.2,30.19,North,360,15.0,15.0,48,0.00,,,0.00,Wunderground v.1.15,2013-02-18 04:29:00,
2013-02-17 23:33:00,26.2,9.2,30.19,North,360,13.0,19.0,48,0.00,,,0.00,Wunderground v.1.15,2013-02-18 04:33:00,
2013-02-17 23:35:00,26.3,9.7,30.19,North,360,13.0,19.0,49,0.00,,,0.00,Wunderground v.1.15,2013-02-18 04:35:00,
2013-02-17 23:37:00,26.3,9.2,30.19,North,360,11.0,19.0,48,0.00,,,0.00,Wunderground v.1.15,2013-02-18 04:37:00,
2013-02-17 23:41:00,26.2,9.2,30.19,North,360,12.0,15.0,48,0.00,,,0.00,Wunderground v.1.15,2013-02-18 04:41:00,
2013-02-17 23:43:00,26.2,9.6,30.19,North,360,12.0,15.0,49,0.00,,,0.00,Wunderground v.1.15,2013-02-18 04:43:00,
2013-02-17 23:47:00,26.1,9.1,30.20,North,360,13.0,15.0,48,0.00,,,0.00,Wunderground v.1.15,2013-02-18 04:47:00,
2013-02-17 23:49:00,26.1,9.5,30.19,North,360,13.0,13.0,49,0.00,,,0.00,Wunderground v.1.15,2013-02-18 04:49:00,
2013-02-17 23:55:00,26.2,9.6,30.20,North,360,12.0,15.0,49,0.00,,,0.00,Wunderground v.1.15,2013-02-18 04:55:00,
2013-02-17 23:57:00,26.3,9.7,30.20,North,360,11.0,15.0,49,0.00,,,0.00,Wunderground v.1.15,2013-02-18 04:57:00,